• In Romania
  • List of Countries
  • For 7 days
  • Water Temperature
  • Satellite Maps
  • Weather Map
  • Weather Widgets
  • user-avatar
    Login

    Hourly Weather Veszprem

    Today, 22 July, Sunday

    Time Temperature Precipitation Wind Pressure Humidity
    00:00 +21°C° 0.7 mm 1 mps 735 mmHg 79%
    01:00 +20°C° 0.7 mm 1 mps 735 mmHg 84%
    02:00 +20°C° 0.9 mm 1 mps 735 mmHg 86%
    03:00 +20°C° 0.9 mm 1 mps 735 mmHg 88%
    04:00 +19°C° 0.9 mm 2 mps 735 mmHg 90%
    05:00 +19°C° 0.6 mm 2 mps 736 mmHg 87%
    06:00 +19°C° 0.6 mm 3 mps 736 mmHg 85%
    07:00 +20°C° 0.6 mm 3 mps 736 mmHg 83%
    08:00 +22°C° 0 mm 3 mps 736 mmHg 73%
    09:00 +25°C° 0 mm 4 mps 736 mmHg 64%
    10:00 +27°C° 0 mm 4 mps 736 mmHg 54%
    11:00 +28°C° 0 mm 4 mps 736 mmHg 50%
    12:00 +29°C° 0 mm 3 mps 735 mmHg 46%
    13:00 +30°C° 0 mm 3 mps 735 mmHg 43%
    14:00 +30°C° 0 mm 3 mps 735 mmHg 44%
    15:00 +29°C° 0 mm 3 mps 735 mmHg 44%
    16:00 +29°C° 0 mm 3 mps 735 mmHg 45%
    17:00 +28°C° 0 mm 3 mps 735 mmHg 51%
    18:00 +26°C° 0 mm 3 mps 734 mmHg 56%
    19:00 +25°C° 0 mm 3 mps 734 mmHg 61%
    20:00 +24°C° 0 mm 3 mps 734 mmHg 66%
    21:00 +22°C° 0 mm 4 mps 735 mmHg 71%
    22:00 +20°C° 0 mm 4 mps 735 mmHg 75%
    23:00 +20°C° 0.1 mm 3 mps 735 mmHg 79%

    Tomorrow, 23 July, Monday

    Time Temperature Precipitation Wind Pressure Humidity
    00:00 +19°C° 0.1 mm 3 mps 735 mmHg 82%
    01:00 +18°C° 0.1 mm 2 mps 735 mmHg 86%
    02:00 +18°C° 0.1 mm 3 mps 735 mmHg 87%
    03:00 +18°C° 0.1 mm 3 mps 735 mmHg 89%
    04:00 +18°C° 0.1 mm 4 mps 735 mmHg 90%
    05:00 +19°C° 0.1 mm 4 mps 735 mmHg 87%
    06:00 +20°C° 0.1 mm 5 mps 735 mmHg 84%
    07:00 +21°C° 0.1 mm 6 mps 735 mmHg 80%
    08:00 +21°C° 0.4 mm 6 mps 735 mmHg 78%
    09:00 +22°C° 0.4 mm 6 mps 735 mmHg 77%
    10:00 +23°C° 0.4 mm 7 mps 736 mmHg 75%
    11:00 +24°C° 0.7 mm 7 mps 735 mmHg 69%
    12:00 +26°C° 0.7 mm 7 mps 735 mmHg 62%
    13:00 +28°C° 0.7 mm 7 mps 735 mmHg 56%
    14:00 +28°C° 0.1 mm 6 mps 735 mmHg 53%
    15:00 +29°C° 0.1 mm 6 mps 735 mmHg 49%
    16:00 +29°C° 0.1 mm 6 mps 735 mmHg 46%
    17:00 +28°C° 0 mm 6 mps 735 mmHg 49%
    18:00 +27°C° 0 mm 5 mps 735 mmHg 53%
    19:00 +26°C° 0 mm 5 mps 736 mmHg 56%
    20:00 +25°C° 0 mm 5 mps 736 mmHg 58%
    21:00 +23°C° 0 mm 5 mps 736 mmHg 61%
    22:00 +22°C° 0 mm 5 mps 737 mmHg 63%
    23:00 +21°C° 0 mm 5 mps 737 mmHg 65%

    Day after tomorrow, 24 July, Tuesday

    Time Temperature Precipitation Wind Pressure Humidity
    00:00 +21°C° 0 mm 5 mps 737 mmHg 67%
    01:00 +20°C° 0 mm 4 mps 737 mmHg 69%
    02:00 +19°C° 0 mm 4 mps 737 mmHg 71%
    03:00 +19°C° 0 mm 4 mps 737 mmHg 73%
    04:00 +18°C° 0 mm 4 mps 737 mmHg 75%
    05:00 +19°C° 0 mm 5 mps 737 mmHg 71%
    06:00 +21°C° 0 mm 5 mps 737 mmHg 67%
    07:00 +22°C° 0 mm 6 mps 737 mmHg 63%
    08:00 +23°C° 0 mm 6 mps 738 mmHg 57%
    09:00 +26°C° 0 mm 6 mps 738 mmHg 51%
    10:00 +28°C° 0 mm 6 mps 738 mmHg 45%
    11:00 +29°C° 0 mm 6 mps 737 mmHg 42%
    12:00 +30°C° 0 mm 5 mps 737 mmHg 40%
    13:00 +30°C° 0 mm 5 mps 737 mmHg 37%
    14:00 +30°C° 0 mm 5 mps 736 mmHg 37%
    15:00 +30°C° 0 mm 5 mps 736 mmHg 38%
    16:00 +30°C° 0 mm 5 mps 736 mmHg 38%
    17:00 +29°C° 0 mm 4 mps 736 mmHg 43%
    18:00 +27°C° 0 mm 4 mps 736 mmHg 49%
    19:00 +26°C° 0 mm 3 mps 736 mmHg 55%
    20:00 +25°C° 0 mm 3 mps 736 mmHg 59%
    21:00 +24°C° 0 mm 3 mps 737 mmHg 63%
    22:00 +21°C° 0 mm 3 mps 737 mmHg 67%
    23:00 +21°C° 0 mm 3 mps 737 mmHg 70%

    25 July, Wednesday

    Time Temperature Precipitation Wind Pressure Humidity
    00:00 +20°C° 0 mm 2 mps 737 mmHg 74%
    01:00 +19°C° 0 mm 2 mps 737 mmHg 77%
    02:00 +19°C° 0 mm 2 mps 737 mmHg 79%
    03:00 +18°C° 0 mm 2 mps 737 mmHg 81%
    04:00 +18°C° 0 mm 2 mps 737 mmHg 83%
    05:00 +20°C° 0 mm 2 mps 737 mmHg 77%
    06:00 +21°C° 0 mm 3 mps 738 mmHg 71%
    07:00 +22°C° 0 mm 3 mps 738 mmHg 66%
    08:00 +25°C° 0 mm 3 mps 738 mmHg 58%
    09:00 +27°C° 0 mm 4 mps 738 mmHg 51%
    10:00 +29°C° 0 mm 4 mps 738 mmHg 44%
    11:00 +30°C° 0 mm 4 mps 738 mmHg 41%
    12:00 +30°C° 0 mm 4 mps 737 mmHg 38%
    13:00 +32°C° 0 mm 4 mps 737 mmHg 35%
    14:00 +32°C° 0 mm 4 mps 737 mmHg 35%
    15:00 +32°C° 0 mm 4 mps 737 mmHg 35%
    16:00 +32°C° 0 mm 4 mps 737 mmHg 35%
    17:00 +30°C° 0 mm 3 mps 737 mmHg 41%
    18:00 +28°C° 0 mm 3 mps 737 mmHg 46%
    19:00 +27°C° 0 mm 2 mps 737 mmHg 52%
    20:00 +25°C° 0 mm 2 mps 737 mmHg 57%
    21:00 +24°C° 0 mm 2 mps 737 mmHg 62%
    22:00 +23°C° 0 mm 2 mps 737 mmHg 67%
    23:00 +21°C° 0 mm 2 mps 737 mmHg 70%

    26 July, Thursday

    Time Temperature Precipitation Wind Pressure Humidity
    00:00 +21°C° 0 mm 2 mps 737 mmHg 74%
    01:00 +20°C° 0 mm 2 mps 737 mmHg 77%
    02:00 +20°C° 0 mm 2 mps 737 mmHg 79%
    03:00 +19°C° 0 mm 2 mps 737 mmHg 82%
    04:00 +19°C° 0 mm 2 mps 737 mmHg 84%
    05:00 +20°C° 0 mm 2 mps 738 mmHg 79%
    06:00 +21°C° 0 mm 2 mps 738 mmHg 74%
    07:00 +24°C° 0 mm 2 mps 738 mmHg 68%
    08:00 +25°C° 0.4 mm 2 mps 738 mmHg 62%
    09:00 +27°C° 0.4 mm 3 mps 738 mmHg 56%
    10:00 +29°C° 0.4 mm 3 mps 738 mmHg 50%
    11:00 +29°C° 0 mm 3 mps 738 mmHg 47%
    12:00 +30°C° 0 mm 3 mps 738 mmHg 43%
    13:00 +31°C° 0 mm 3 mps 738 mmHg 39%
    14:00 +31°C° 0 mm 3 mps 738 mmHg 39%
    15:00 +33°C° 0 mm 3 mps 737 mmHg 39%
    16:00 +33°C° 0 mm 3 mps 737 mmHg 38%
    17:00 +30°C° 0 mm 3 mps 737 mmHg 43%
    18:00 +29°C° 0 mm 2 mps 737 mmHg 48%
    19:00 +28°C° 0 mm 2 mps 738 mmHg 53%
    20:00 +26°C° 0.5 mm 2 mps 738 mmHg 60%
    21:00 +25°C° 0.5 mm 2 mps 738 mmHg 67%
    22:00 +23°C° 0.5 mm 2 mps 738 mmHg 74%
    23:00 +23°C° 0 mm 2 mps 738 mmHg 76%

    27 July, Friday

    Time Temperature Precipitation Wind Pressure Humidity
    00:00 +23°C° 0 mm 2 mps 738 mmHg 79%
    01:00 +21°C° 0 mm 2 mps 738 mmHg 81%
    02:00 +21°C° 0.2 mm 2 mps 738 mmHg 82%
    03:00 +20°C° 0.2 mm 2 mps 738 mmHg 84%
    04:00 +20°C° 0.2 mm 2 mps 738 mmHg 86%
    05:00 +21°C° 0 mm 2 mps 738 mmHg 82%
    06:00 +23°C° 0 mm 2 mps 738 mmHg 78%
    07:00 +24°C° 0 mm 2 mps 738 mmHg 74%
    08:00 +26°C° 0 mm 2 mps 738 mmHg 66%
    09:00 +28°C° 0 mm 2 mps 738 mmHg 58%
    10:00 +30°C° 0 mm 2 mps 738 mmHg 50%
    11:00 +30°C° 0.1 mm 2 mps 738 mmHg 47%
    12:00 +31°C° 0.1 mm 2 mps 738 mmHg 44%
    13:00 +32°C° 0.1 mm 2 mps 738 mmHg 41%
    14:00 +32°C° 0 mm 2 mps 738 mmHg 41%
    15:00 +32°C° 0 mm 2 mps 737 mmHg 41%
    16:00 +32°C° 0 mm 2 mps 737 mmHg 41%
    17:00 +31°C° 0 mm 1 mps 737 mmHg 45%
    18:00 +29°C° 0 mm 1 mps 737 mmHg 49%
    19:00 +28°C° 0 mm 1 mps 737 mmHg 53%
    20:00 +27°C° 0 mm 1 mps 737 mmHg 56%
    21:00 +26°C° 0 mm 1 mps 737 mmHg 59%
    22:00 +25°C° 0 mm 1 mps 738 mmHg 62%
    23:00 +24°C° 0.1 mm 1 mps 737 mmHg 65%
    Show more